| time (UTC) | temp F | wind direction | speed knots | gust knots | rain 1hr in | rain 24hr in | rain mn in | humidity % | barometer mb |
| 20260505024514 | 68 | 148 | 0.9 | 5.2 | 0.00 | 0.00 | 0.00 | 60 | 1010.9 |
| 20260505023021 | 69 | 170 | 0.0 | 2.6 | 0.00 | 0.00 | 0.00 | 60 | 1010.8 |
| 20260505021519 | 69 | 169 | 0.9 | 2.6 | 0.00 | 0.00 | 0.00 | 58 | 1010.5 |
| 20260505020025 | 70 | 158 | 0.9 | 3.5 | 0.00 | 0.00 | 0.00 | 57 | 1010.5 |
| 20260505014532 | 70 | 148 | 0.0 | 2.6 | 0.00 | 0.00 | 0.00 | 57 | 1010.2 |
| 20260505013027 | 71 | 110 | 0.0 | 0.9 | 0.00 | 0.00 | 0.00 | 56 | 1010.4 |
| 20260505011526 | 72 | 172 | 0.0 | 2.6 | 0.00 | 0.00 | 0.00 | 54 | 1010.3 |
| 20260505010020 | 73 | 160 | 0.9 | 4.3 | 0.00 | 0.00 | 0.00 | 52 | 1010.3 |
| 20260505004520 | 73 | 157 | 0.9 | 5.2 | 0.00 | 0.00 | 0.00 | 50 | 1010.2 |
| 20260505003041 | 74 | 159 | 1.7 | 4.3 | 0.00 | 0.00 | 0.00 | 50 | 1010.1 |
| 20260505001521 | 75 | 169 | 0.9 | 4.3 | 0.00 | 0.00 | 0.00 | 49 | 1010.1 |
| 20260505000018 | 75 | 165 | 0.9 | 5.2 | 0.00 | 0.00 | 0.00 | 48 | 1010.1 |
| 20260504234523 | 76 | 220 | 2.6 | 12.2 | 0.00 | 0.00 | 0.00 | 47 | 1010.2 |
| 20260504233022 | 77 | 186 | 1.7 | 7.8 | 0.00 | 0.00 | 0.00 | 46 | 1010.3 |
| 20260504231525 | 78 | 236 | 3.5 | 10.4 | 0.00 | 0.00 | 0.00 | 46 | 1010.3 |
| 20260504230023 | 78 | 188 | 2.6 | 8.7 | 0.00 | 0.00 | 0.00 | 44 | 1010.4 |
| 20260504224522 | 78 | 167 | 2.6 | 13.0 | 0.00 | 0.00 | 0.00 | 44 | 1010.3 |
| 20260504223024 | 79 | 158 | 2.6 | 9.6 | 0.00 | 0.00 | 0.00 | 43 | 1010.4 |
| 20260504221522 | 79 | 171 | 5.2 | 11.3 | 0.00 | 0.00 | 0.00 | 42 | 1010.5 |
| 20260504220021 | 80 | 158 | 3.5 | 9.6 | 0.00 | 0.00 | 0.00 | 42 | 1010.4 |
| 20260504214523 | 80 | 207 | 3.5 | 12.2 | 0.00 | 0.00 | 0.00 | 42 | 1010.6 |
| 20260504213027 | 80 | 150 | 5.2 | 12.2 | 0.00 | 0.00 | 0.00 | 42 | 1010.5 |
| 20260504211534 | 79 | 188 | 4.3 | 10.4 | 0.00 | 0.00 | 0.00 | 42 | 1010.7 |
| 20260504210022 | 80 | 252 | 4.3 | 8.7 | 0.00 | 0.00 | 0.00 | 42 | 1011.0 |
| 20260504204521 | 80 | 212 | 5.2 | 9.6 | 0.00 | 0.00 | 0.00 | 41 | 1011.1 |
| 20260504203021 | 80 | 158 | 2.6 | 10.4 | 0.00 | 0.00 | 0.00 | 43 | 1011.2 |
| 20260504201519 | 80 | 223 | 3.5 | 9.6 | 0.00 | 0.00 | 0.00 | 43 | 1011.5 |
| 20260504200024 | 80 | 198 | 4.3 | 13.0 | 0.00 | 0.00 | 0.00 | 43 | 1011.8 |
| 20260504194525 | 80 | 174 | 4.3 | 9.6 | 0.00 | 0.00 | 0.00 | 41 | 1011.9 |
| 20260504193024 | 80 | 282 | 2.6 | 12.2 | 0.00 | 0.00 | 0.00 | 44 | 1012.4 |
| 20260504191509 | 80 | 276 | 3.5 | 13.0 | 0.00 | 0.00 | 0.00 | 44 | 1012.4 |
| 20260504190016 | 80 | 247 | 1.7 | 16.5 | 0.00 | 0.00 | 0.00 | 45 | 1012.5 |
| 20260504184536 | 79 | 162 | 2.6 | 12.2 | 0.00 | 0.00 | 0.00 | 45 | 1012.7 |
| 20260504183021 | 79 | 238 | 5.2 | 13.0 | 0.00 | 0.00 | 0.00 | 44 | 1013.1 |
| 20260504181523 | 79 | 179 | 3.5 | 9.6 | 0.00 | 0.00 | 0.00 | 44 | 1013.1 |
| 20260504180024 | 79 | 210 | 3.5 | 7.8 | 0.00 | 0.00 | 0.00 | 48 | 1013.3 |
| 20260504174523 | 78 | 207 | 2.6 | 12.2 | 0.00 | 0.00 | 0.00 | 46 | 1013.4 |
| 20260504173025 | 77 | 179 | 4.3 | 8.7 | 0.00 | 0.00 | 0.00 | 50 | 1013.6 |
| 20260504171525 | 77 | 206 | 3.5 | 11.3 | 0.00 | 0.00 | 0.00 | 48 | 1013.8 |
| 20260504081507 | 60 | 154 | 0.9 | 3.5 | 0.00 | 0.00 | 0.00 | 71 | 1014.6 |
| 20260504050021 | 59 | 82 | 0.0 | 0.0 | 0.00 | 0.00 | 0.00 | 71 | 1016.2 |
| 20260504044517 | 59 | 155 | 0.0 | 0.0 | 0.00 | 0.00 | 0.00 | 70 | 1016.2 |
| 20260504043018 | 59 | 155 | 0.0 | 0.0 | 0.00 | 0.00 | 0.00 | 68 | 1016.2 |
| 20260504041529 | 60 | 155 | 0.0 | 1.7 | 0.00 | 0.00 | 0.00 | 68 | 1016.1 |
| 20260504040016 | 60 | 161 | 0.0 | 0.0 | 0.00 | 0.00 | 0.00 | 67 | 1016.2 |
| 20260504034518 | 61 | 161 | 0.0 | 0.0 | 0.00 | 0.00 | 0.00 | 66 | 1016.4 |
| 20260504033015 | 61 | 161 | 0.0 | 0.0 | 0.00 | 0.00 | 0.00 | 65 | 1016.4 |
| 20260504031516 | 61 | 161 | 0.0 | 0.0 | 0.00 | 0.00 | 0.00 | 64 | 1016.4 |
| 20260504030016 | 62 | 161 | 0.0 | 0.0 | 0.00 | 0.00 | 0.00 | 64 | 1016.5 |